GW1685 Weather Reports


time (UTC)temp
C
wind
direction
speed
KPH
gust
KPH
rain 1hr
cm
rain 24hr
cm
rain mn
cm
humidity
%
barometer
mb
20260504035600 13 199 3.2 4.8 0.00 0.00 0.00 45 1003.6
20260504035056 13 127 3.2 4.8 0.00 0.00 0.00 45 1003.7
20260504034555 13 132 3.2 4.8 0.00 0.00 0.00 46 1003.9
20260504034051 13 176 0.0 0.0 0.00 0.00 0.00 47 1003.9
20260504033549 12 158 0.0 0.0 0.00 0.00 0.00 47 1004.1
20260504033046 12 133 0.0 0.0 0.00 0.00 0.00 50 1004.1
20260504032543 12 114 0.0 0.0 0.00 0.00 0.00 50 1004.3
20260504032040 12 129 0.0 0.0 0.00 0.00 0.00 51 1004.5
20260504031537 12 157 0.0 0.0 0.00 0.00 0.00 51 1004.9
20260504031033 12 112 0.0 0.0 0.00 0.00 0.00 52 1004.6
20260504030531 12 127 0.0 0.0 0.00 0.00 0.00 52 1004.7
20260504030026 12 149 0.0 0.0 0.00 0.00 0.00 51 1004.8
20260504025524 12 123 0.0 0.0 0.00 0.00 0.00 54 1004.9
20260504025020 12 122 0.0 0.0 0.00 0.00 0.00 56 1005.1
20260504024518 12 110 0.0 0.0 0.00 0.00 0.00 55 1004.9
20260504024014 12 109 0.0 0.0 0.00 0.00 0.00 53 1005.2
20260504023511 12 109 0.0 0.0 0.00 0.00 0.00 53 1005.3
20260504023007 12 103 0.0 0.0 0.00 0.00 0.00 53 1005.0
20260504022503 13 112 0.0 0.0 0.00 0.00 0.00 51 1005.2
20260504021959 13 106 0.0 0.0 0.00 0.00 0.00 50 1005.2
20260504021457 14 117 0.0 0.0 0.00 0.00 0.00 47 1005.1
20260504020954 15 111 0.0 0.0 0.00 0.00 0.00 44 1005.1
20260504020450 15 123 0.0 0.0 0.00 0.00 0.00 41 1005.1
20260504015947 15 115 0.0 0.0 0.00 0.00 0.00 41 1005.2
20260504015443 16 117 0.0 0.0 0.00 0.00 0.00 40 1005.4
20260504014939 16 176 1.6 3.2 0.00 0.00 0.00 38 1005.2
20260504014436 17 127 1.6 3.2 0.00 0.00 0.00 37 1005.4
20260504013932 17 132 3.2 4.8 0.00 0.00 0.00 37 1005.3
20260504013431 17 142 3.2 4.8 0.00 0.00 0.00 36 1005.3
20260504012927 17 171 1.6 3.2 0.00 0.00 0.00 36 1005.2
20260504012425 17 226 6.4 8.0 0.00 0.00 0.00 36 1005.2
20260504011922 18 188 6.4 8.0 0.00 0.00 0.00 36 1005.4
20260504011419 18 244 4.8 4.8 0.00 0.00 0.00 35 1005.5
20260504010915 18 231 3.2 4.8 0.00 0.00 0.00 35 1005.3
20260504010411 18 154 3.2 4.8 0.00 0.00 0.00 34 1005.3
20260504005907 18 176 3.2 4.8 0.00 0.00 0.00 34 1005.3
20260504005404 19 166 3.2 3.2 0.00 0.00 0.00 33 1005.2
20260504004902 19 237 6.4 8.0 0.00 0.00 0.00 32 1005.3
20260504004400 19 231 6.4 8.0 0.00 0.00 0.00 32 1005.6
20260504003856 20 262 4.8 4.8 0.00 0.00 0.00 32 1005.6
20260504003352 20 196 6.4 9.7 0.00 0.00 0.00 31 1005.5
20260504002849 20 284 9.7 12.9 0.00 0.00 0.00 31 1005.6
20260504002346 20 227 9.7 9.7 0.00 0.00 0.00 31 1005.7
20260504001843 20 244 12.9 14.5 0.00 0.00 0.00 31 1005.6
20260504001341 20 261 12.9 14.5 0.00 0.00 0.00 31 1005.7
20260504000837 20 263 12.9 19.3 0.00 0.00 0.00 30 1005.5
20260504000335 20 234 9.7 9.7 0.00 0.00 0.00 31 1005.8
20260503235832 20 199 11.3 14.5 0.00 0.00 0.00 30 1005.8
20260503235330 20 208 11.3 12.9 0.00 0.00 0.00 30 1006.1
20260503234827 20 241 8.0 9.7 0.00 0.00 0.00 29 1005.9
20260503234325 20 240 8.0 8.0 0.00 0.00 0.00 31 1006.0
20260503233822 20 305 8.0 9.7 0.00 0.00 0.00 30 1005.8
20260503233318 20 265 12.9 19.3 0.00 0.00 0.00 30 1006.1
20260503232814 20 240 8.0 9.7 0.00 0.00 0.00 30 1005.9
20260503232312 20 226 14.5 19.3 0.00 0.00 0.00 29 1005.8
20260503231810 20 268 19.3 22.5 0.00 0.00 0.00 29 1006.0
20260503231307 20 277 14.5 17.7 0.00 0.00 0.00 29 1006.1
20260503230802 20 258 22.5 30.6 0.00 0.00 0.00 29 1006.2
20260503230300 21 240 9.7 12.9 0.00 0.00 0.00 29 1005.9
20260503225757 21 223 9.7 9.7 0.00 0.00 0.00 29 1005.9
20260503225252 20 92 4.8 8.0 0.00 0.00 0.00 29 1006.1
20260503224749 21 253 11.3 14.5 0.00 0.00 0.00 29 1006.2
20260503224247 21 185 14.5 17.7 0.00 0.00 0.00 28 1006.0
20260503223744 20 282 17.7 19.3 0.00 0.00 0.00 29 1006.4
20260503223242 20 228 11.3 12.9 0.00 0.00 0.00 28 1006.4
20260503222738 21 197 17.7 19.3 0.00 0.00 0.00 29 1006.4
20260503222236 20 241 11.3 14.5 0.00 0.00 0.00 29 1006.4
20260503221734 20 257 17.7 22.5 0.00 0.00 0.00 28 1006.4
20260503221232 20 224 11.3 14.5 0.00 0.00 0.00 28 1006.4
20260503220728 20 220 8.0 8.0 0.00 0.00 0.00 30 1006.6
20260503220225 20 273 8.0 9.7 0.00 0.00 0.00 30 1006.8
20260503215721 20 225 12.9 14.5 0.00 0.00 0.00 29 1006.7
20260503215219 20 255 19.3 22.5 0.00 0.00 0.00 29 1006.5
20260503214717 20 12 11.3 14.5 0.00 0.00 0.00 28 1006.7
20260503214213 20 240 17.7 17.7 0.00 0.00 0.00 28 1006.8
20260503213711 20 350 8.0 12.9 0.00 0.00 0.00 28 1006.6
20260503213208 20 276 12.9 17.7 0.00 0.00 0.00 30 1006.6
20260503212705 20 196 11.3 14.5 0.00 0.00 0.00 30 1006.8
20260503212203 20 270 20.9 24.1 0.00 0.00 0.00 29 1007.1
20260503211700 20 64 6.4 8.0 0.00 0.00 0.00 30 1007.0
20260503211155 20 252 6.4 8.0 0.00 0.00 0.00 29 1007.2
20260503210652 20 286 12.9 14.5 0.00 0.00 0.00 28 1007.2
20260503210149 19 34 4.8 9.7 0.00 0.00 0.00 29 1007.1
20260503205644 20 22 11.3 17.7 0.00 0.00 0.00 29 1007.4
20260503205141 20 300 11.3 19.3 0.00 0.00 0.00 29 1007.2
20260503204637 20 17 12.9 17.7 0.00 0.00 0.00 29 1007.6
20260503204135 19 354 12.9 14.5 0.00 0.00 0.00 29 1007.5
20260503203632 19 251 17.7 22.5 0.00 0.00 0.00 28 1007.5
20260503203130 20 258 20.9 27.4 0.00 0.00 0.00 28 1007.5
20260503202627 19 51 14.5 19.3 0.00 0.00 0.00 29 1007.4
20260503202125 19 329 11.3 19.3 0.00 0.00 0.00 28 1007.6
20260503201623 19 243 11.3 14.5 0.00 0.00 0.00 28 1007.6
20260503201120 20 10 14.5 22.5 0.00 0.00 0.00 28 1007.7
20260503200616 18 333 16.1 22.5 0.00 0.00 0.00 28 1007.7
20260503200112 18 256 19.3 22.5 0.00 0.00 0.00 28 1007.5
20260503195610 18 298 17.7 27.4 0.00 0.00 0.00 28 1007.9
20260503195106 18 275 27.4 32.2 0.00 0.00 0.00 27 1008.0
20260503194603 18 150 8.0 12.9 0.00 0.00 0.00 28 1007.9
20260503194058 18 282 14.5 17.7 0.00 0.00 0.00 26 1008.0
20260503193555 18 336 19.3 24.1 0.00 0.00 0.00 26 1007.9
20260503193050 18 259 14.5 19.3 0.00 0.00 0.00 26 1008.1
20260503192547 18 304 22.5 24.1 0.00 0.00 0.00 26 1008.1
20260503192043 18 282 24.1 30.6 0.00 0.00 0.00 25 1008.1
20260503191539 18 348 11.3 14.5 0.00 0.00 0.00 26 1008.1
20260503191036 18 285 11.3 17.7 0.00 0.00 0.00 24 1008.1
20260503190533 18 321 19.3 30.6 0.00 0.00 0.00 24 1008.4
20260503190030 18 290 22.5 27.4 0.00 0.00 0.00 23 1008.3
20260503185527 18 279 17.7 24.1 0.00 0.00 0.00 25 1008.1
20260503185021 18 222 24.1 30.6 0.00 0.00 0.00 23 1008.2
20260503184517 18 286 14.5 22.5 0.00 0.00 0.00 25 1008.4
20260503184014 18 259 12.9 14.5 0.00 0.00 0.00 26 1008.3
20260503183511 18 288 24.1 30.6 0.00 0.00 0.00 25 1008.5
20260503183008 18 234 14.5 22.5 0.00 0.00 0.00 25 1008.5
20260503182507 18 317 12.9 24.1 0.00 0.00 0.00 26 1008.6
20260503182004 18 284 32.2 37.0 0.00 0.00 0.00 28 1008.2
20260503181500 18 343 19.3 22.5 0.00 0.00 0.00 29 1008.4
20260503180956 17 317 14.5 19.3 0.00 0.00 0.00 32 1008.4
20260503180454 18 272 22.5 27.4 0.00 0.00 0.00 32 1008.9
20260503175951 17 237 11.3 14.5 0.00 0.00 0.00 32 1008.5
20260503175449 18 245 19.3 30.6 0.00 0.00 0.00 32 1008.8
20260503174945 18 323 16.1 22.5 0.00 0.00 0.00 32 1008.6
20260503174443 17 250 22.5 27.4 0.00 0.00 0.00 35 1008.6
20260503173938 18 309 20.9 24.1 0.00 0.00 0.00 35 1008.7
20260503173434 18 266 17.7 22.5 0.00 0.00 0.00 35 1008.7
20260503172931 18 319 20.9 30.6 0.00 0.00 0.00 35 1008.7
20260503172428 18 315 11.3 22.5 0.00 0.00 0.00 36 1008.5
20260503171925 18 272 24.1 27.4 0.00 0.00 0.00 36 1008.6
20260503171422 17 22 27.4 30.6 0.00 0.00 0.00 38 1008.4
20260503170919 17 291 22.5 27.4 0.00 0.00 0.00 39 1008.8
20260503170415 17 269 30.6 40.2 0.00 0.00 0.00 41 1008.3
20260503150808 16 289 17.7 22.5 0.00 0.00 0.00 52 1008.4
20260503150303 16 1 8.0 9.7 0.00 0.00 0.00 54 1008.2
20260503140228 14 29 12.9 17.7 0.00 0.00 0.00 59 1008.5
20260503131157 12 282 8.0 9.7 0.00 0.00 0.00 65 1008.0
20260503130655 12 302 6.4 8.0 0.00 0.00 0.00 66 1008.0
20260503130152 11 189 4.8 4.8 0.00 0.00 0.00 68 1007.9
20260503120118 6 96 0.0 0.0 0.00 0.00 0.00 89 1007.5
20260503110545 5 101 0.0 0.0 0.00 0.00 0.00 88 1006.9
20260503090432 7 96 0.0 0.0 0.00 0.00 0.00 77 1007.3
20260503081358 8 96 0.0 0.0 0.00 0.00 0.00 72 1007.8
20260503080855 9 99 0.0 0.0 0.00 0.00 0.00 71 1007.6
20260503080352 9 115 0.0 0.0 0.00 0.00 0.00 70 1007.7
20260503072829 10 91 0.0 0.0 0.00 0.00 0.00 68 1008.0
20260503072326 10 75 0.0 0.0 0.00 0.00 0.00 68 1008.1
20260503071822 10 88 0.0 0.0 0.00 0.00 0.00 69 1008.2
20260503071320 10 91 0.0 0.0 0.00 0.00 0.00 69 1008.3
20260503070815 10 101 0.0 0.0 0.00 0.00 0.00 66 1008.4
20260503070314 10 77 0.0 0.0 0.00 0.00 0.00 69 1008.3
20260503060227 11 124 0.0 0.0 0.00 0.00 0.00 65 1008.6
20260503054714 11 100 0.0 0.0 0.00 0.00 0.00 65 1009.0
20260503054211 11 103 0.0 0.0 0.00 0.00 0.00 62 1009.0
20260503053709 11 98 0.0 0.0 0.00 0.00 0.00 63 1008.8
20260503053207 11 99 0.0 0.0 0.00 0.00 0.00 64 1008.9
20260503052703 11 92 4.8 8.0 0.00 0.00 0.00 63 1008.9
20260503052200 11 99 0.0 0.0 0.00 0.00 0.00 63 1009.0
20260503051655 12 109 0.0 0.0 0.00 0.00 0.00 62 1009.0
20260503051153 12 98 1.6 4.8 0.00 0.00 0.00 62 1009.1
20260503050649 12 114 3.2 4.8 0.00 0.00 0.00 59 1009.0
20260503050146 12 106 0.0 0.0 0.00 0.00 0.00 59 1009.1
20260503045643 12 113 0.0 0.0 0.00 0.00 0.00 60 1009.3
20260503045141 13 105 0.0 0.0 0.00 0.00 0.00 61 1009.3
20260503044637 12 102 0.0 0.0 0.00 0.00 0.00 60 1009.5
20260503044135 13 100 0.0 0.0 0.00 0.00 0.00 61 1009.6
20260503043631 13 105 0.0 0.0 0.00 0.00 0.00 58 1009.7
20260503043128 13 104 0.0 0.0 0.00 0.00 0.00 58 1009.6
20260503042625 13 100 0.0 0.0 0.00 0.00 0.00 55 1009.9
20260503042120 13 99 0.0 0.0 0.00 0.00 0.00 56 1009.9
20260503041617 13 106 0.0 0.0 0.00 0.00 0.00 54 1009.9
20260503041115 13 95 0.0 0.0 0.00 0.00 0.00 53 1010.0
20260503040612 13 112 1.6 3.2 0.00 0.00 0.00 53 1010.0
20260503040110 13 99 1.6 4.8 0.00 0.00 0.00 54 1010.4